Regional Weather Roundup
Issued by NWS

Home | Current Version | Previous Version | Text Only | Print | Product List | Glossary Off
Versions: 1 2 3 4 5 6 7 8 9 10 11 12 13 14 15 16 17 18 19 20 21 22 23 24 25 26 27 28 29 30 31 32 33 34 35 36 37 38 39 40 41 42 43 44 45 46 47 48 49 50

000
ASUS43 KOAX 230602
RWRNE

WEATHER ROUNDUP FOR NEBRASKA
NATIONAL WEATHER SERVICE OMAHA NE
100 AM CDT THU MAR 23 2017

NOTES: SATELLITE DATA IS BEING USED TO AUGMENT CLOUD COVER ABOVE
       12000 FEET.
       "FAIR" INDICATES FEW OR NO CLOUDS BELOW 12,000 FEET WITH NO
       SIGNIFICANT WEATHER AND/OR OBSTRUCTIONS TO VISIBILITY.

  * THESE STATIONS DO NOT REPORT WEATHER SUCH AS RAIN...SNOW OR FOG.

NEZ001>004-019>022-054>056-230700-
NEBRASKA PANHANDLE

CITY           SKY/WX    TMP DP  RH WIND       PRES   REMARKS
SCOTTSBLUFF    CLOUDY    49  36  61 E15       29.78F
6HR MIN TEMP:  49; 6HR MAX TEMP:  68;

ALLIANCE       CLOUDY    44  33  65 S22G31    29.81F
6HR MIN TEMP:  44; 6HR MAX TEMP:  60;

CHADRON        MOCLDY    52  36  54 S7G18     29.76R
6HR MIN TEMP:  52; 6HR MAX TEMP:  66;

KIMBALL        CLOUDY    49  39  70 S12       29.82F
SIDNEY         CLOUDY    47  37  68 S15       29.84F
6HR MIN TEMP:  47; 6HR MAX TEMP:  62;

$$

NEZ057>060-069>072-079>082-230700-
SOUTHWEST NEBRASKA

CITY           SKY/WX    TMP DP  RH WIND       PRES   REMARKS
NORTH PLATTE   CLOUDY    46  32  58 SE13      29.94F
6HR MIN TEMP:  39; 6HR MAX TEMP:  52;

IMPERIAL       PTCLDY    42  34  73 SE15      29.89F
6HR MIN TEMP:  42; 6HR MAX TEMP:  55;

LEXINGTON      CLEAR     45  33  63 SE13      29.98S
MCCOOK         CLOUDY    44  35  70 SE14      29.94F
6HR MIN TEMP:  44; 6HR MAX TEMP:  52;

OGALLALA       CLOUDY    46  33  62 SE12      29.90F
$$

NEZ005>010-023>029-035>040-094-230700-
NORTH CENTRAL NEBRASKA

CITY           SKY/WX    TMP DP  RH WIND       PRES   REMARKS
VALENTINE      CLOUDY    44  29  55 S12       29.90F
6HR MIN TEMP:  43; 6HR MAX TEMP:  50;

AINSWORTH      CLOUDY    41  30  63 S15       29.91F
BROKEN BOW     CLOUDY    43  28  55 S12       29.97F
6HR MIN TEMP:  42; 6HR MAX TEMP:  51;

O`NEILL        CLOUDY    48  26  42 S16G23    29.97F
ORD            CLOUDY    48  28  46 S14G21    29.99F
6HR MIN TEMP:  48; 6HR MAX TEMP:  53;

THEDFORD       MOCLDY    42  30  62 S10       29.92F
$$

NEZ041-046>049-061>064-073>077-083>087-230700-
SOUTH CENTRAL NEBRASKA

CITY           SKY/WX    TMP DP  RH WIND       PRES   REMARKS
GRAND ISLAND   CLOUDY    49  27  42 SE16G22   30.04F
6HR MIN TEMP:  49; 6HR MAX TEMP:  53;

AURORA         CLOUDY    49  26  40 SE16      30.04F
HASTINGS       CLOUDY    50  27  40 SE17      30.03F
6HR MIN TEMP:  50; 6HR MAX TEMP:  52;

HEBRON         CLOUDY    51  28  40 SE12      30.07F
HOLDREGE       PTCLDY    44  31  60 SE10      29.99S
KEARNEY *      MOCLDY    46  27  46 SE13      30.01F
YORK           CLOUDY    50  28  43 S15G22    30.06S
$$

NEZ011>018-030>034-042>045-230700-
NORTHEAST NEBRASKA

CITY           SKY/WX    TMP DP  RH WIND       PRES   REMARKS
NORFOLK        CLOUDY    45  27  49 SE13      30.05S
6HR MIN TEMP:  44; 6HR MAX TEMP:  47;

ALBION         CLOUDY    51  26  38 S15       30.04F
BLAIR          CLOUDY    45  26  47 SE13G23   30.11F
FREMONT        CLOUDY    46  27  48 SE14G21   30.09F
TEKAMAH        CLOUDY    44  25  47 SE20      30.12F
6HR MIN TEMP:  44; 6HR MAX TEMP:  48;

WAYNE          CLOUDY    43  29  57 SE12      30.08S
$$

NEZ050>053-065>068-078-088>093-230700-
SOUTHEAST NEBRASKA

CITY           SKY/WX    TMP DP  RH WIND       PRES   REMARKS
LINCOLN        CLOUDY    49  27  42 SE15      30.10F
6HR MIN TEMP:  49; 6HR MAX TEMP:  53;

OMAHA EPPLEY   CLOUDY    46  24  42 SE20      30.14F
6HR MIN TEMP:  45; 6HR MAX TEMP:  49;

BEATRICE       CLOUDY    51  28  41 SE16      30.09F
FALLS CITY     CLOUDY    49  24  37 SE12      30.13F
6HR MIN TEMP:  49; 6HR MAX TEMP:  53;

NEBRASKA CITY  CLOUDY    47  18  32 SE13      30.13F
PLATTSMOUTH    CLOUDY    45  21  38 SE16      30.12F
$$

NEZ044-045-051>053-067-230700-
OMAHA AREA

CITY           SKY/WX    TMP DP  RH WIND       PRES   REMARKS
OMAHA EPPLEY   CLOUDY    46  24  42 SE20      30.14F
6HR MIN TEMP:  45; 6HR MAX TEMP:  49;

BLAIR          CLOUDY    45  26  47 SE13G23   30.11F
FREMONT        CLOUDY    46  27  48 SE14G21   30.09F
MILLARD        CLOUDY    47  28  46 SE14      30.13F
OFFUTT AFB     CLOUDY    45  23  41 SE16      30.13F
PLATTSMOUTH    CLOUDY    45  21  38 SE16      30.12F
WAHOO          CLOUDY    47  25  43 SE17      30.10F
$$



USA.gov is the U.S. government's official web portal to all federal, state and local government web resources and services.